| time (UTC) | temp F | wind direction | speed MPH | gust MPH | rain 1hr in | rain 24hr in | rain mn in | humidity % | barometer mb |
| 20260505000721 | 31 | 102 | 2.0 | 3.0 | 0.00 | 0.00 | 0.00 | 97 | 995.9 |
| 20260504234722 | 33 | 149 | 3.0 | 5.0 | 0.00 | 0.00 | 0.00 | 96 | 995.9 |
| 20260504232722 | 33 | 169 | 2.0 | 4.0 | 0.00 | 0.00 | 0.00 | 95 | 996.1 |
| 20260504230721 | 33 | 340 | 3.0 | 5.0 | 0.00 | 0.00 | 0.00 | 96 | 996.2 |
| 20260504224721 | 35 | 169 | 6.0 | 9.0 | 0.00 | 0.00 | 0.00 | 95 | 996.4 |
| 20260504222721 | 35 | 210 | 1.0 | 3.0 | 0.00 | 0.00 | 0.00 | 94 | 996.4 |
| 20260504220721 | 35 | 250 | 2.0 | 3.0 | 0.00 | 0.00 | 0.00 | 95 | 996.6 |
| 20260504214721 | 35 | 223 | 4.0 | 6.0 | 0.00 | 0.00 | 0.00 | 93 | 996.8 |
| 20260504212721 | 36 | 232 | 8.0 | 10.0 | 0.00 | 0.00 | 0.00 | 90 | 996.9 |
| 20260504210721 | 37 | 218 | 8.0 | 11.0 | 0.00 | 0.00 | 0.00 | 86 | 997.1 |
| 20260504204720 | 38 | 207 | 11.0 | 16.0 | 0.00 | 0.00 | 0.00 | 79 | 997.3 |
| 20260504202720 | 39 | 201 | 10.0 | 15.0 | 0.00 | 0.00 | 0.00 | 73 | 997.2 |
| 20260504200720 | 40 | 211 | 13.0 | 18.0 | 0.00 | 0.00 | 0.00 | 63 | 997.0 |
| 20260504194720 | 41 | 189 | 10.0 | 17.0 | 0.00 | 0.00 | 0.00 | 56 | 996.8 |
| 20260504192720 | 40 | 158 | 5.0 | 6.0 | 0.00 | 0.00 | 0.00 | 50 | 996.9 |
| 20260504190720 | 41 | 150 | 5.0 | 6.0 | 0.00 | 0.00 | 0.00 | 47 | 996.9 |
| 20260504184719 | 43 | 146 | 5.0 | 8.0 | 0.00 | 0.00 | 0.00 | 42 | 997.0 |
| 20260504182720 | 44 | 160 | 5.0 | 6.0 | 0.00 | 0.00 | 0.00 | 40 | 997.0 |
| 20260504180719 | 45 | 185 | 5.0 | 6.0 | 0.00 | 0.00 | 0.00 | 39 | 997.0 |
| 20260504174720 | 46 | 208 | 9.0 | 13.0 | 0.00 | 0.00 | 0.00 | 38 | 997.0 |
| 20260504172719 | 47 | 183 | 6.0 | 14.0 | 0.00 | 0.00 | 0.00 | 34 | 997.0 |
| 20260504170719 | 46 | 238 | 6.0 | 9.0 | 0.00 | 0.00 | 0.00 | 32 | 997.1 |
| 20260504150719 | 48 | 204 | 12.0 | 18.0 | 0.00 | 0.00 | 0.00 | 29 | 997.7 |
| 20260504140719 | 49 | 221 | 16.0 | 24.0 | 0.00 | 0.00 | 0.00 | 29 | 998.1 |
| 20260504130718 | 48 | 231 | 15.0 | 23.0 | 0.00 | 0.00 | 0.00 | 29 | 998.3 |
| 20260504110719 | 47 | 227 | 19.0 | 27.0 | 0.00 | 0.00 | 0.00 | 29 | 999.1 |
| 20260504080718 | 44 | 199 | 14.0 | 20.0 | 0.00 | 0.00 | 0.00 | 32 | 1000.3 |
| 20260504050717 | 36 | 243 | 6.0 | 9.0 | 0.00 | 0.00 | 0.00 | 54 | 1002.5 |
| 20260504044716 | 34 | 272 | 4.0 | 8.0 | 0.00 | 0.00 | 0.00 | 57 | 1002.6 |
| 20260504042717 | 33 | 256 | 4.0 | 6.0 | 0.00 | 0.00 | 0.00 | 60 | 1002.7 |
| 20260504040717 | 32 | 232 | 6.0 | 8.0 | 0.00 | 0.00 | 0.00 | 64 | 1002.8 |
| 20260504034717 | 31 | 223 | 5.0 | 8.0 | 0.00 | 0.00 | 0.00 | 67 | 1002.9 |
| 20260504032717 | 30 | 247 | 6.0 | 8.0 | 0.00 | 0.00 | 0.00 | 69 | 1003.0 |
| 20260504030717 | 29 | 236 | 8.0 | 10.0 | 0.00 | 0.00 | 0.00 | 72 | 1003.2 |
| 20260504024716 | 28 | 254 | 5.0 | 7.0 | 0.00 | 0.00 | 0.00 | 74 | 1003.2 |
| 20260504022717 | 27 | 244 | 6.0 | 7.0 | 0.00 | 0.00 | 0.00 | 77 | 1003.4 |
| 20260504020717 | 26 | 249 | 6.0 | 8.0 | 0.00 | 0.00 | 0.00 | 79 | 1003.6 |
| 20260504014717 | 26 | 237 | 6.0 | 7.0 | 0.00 | 0.00 | 0.00 | 81 | 1003.7 |
| 20260504012717 | 26 | 221 | 6.0 | 7.0 | 0.00 | 0.00 | 0.00 | 78 | 1003.6 |
| 20260504010718 | 27 | 236 | 4.0 | 5.0 | 0.00 | 0.00 | 0.00 | 76 | 1003.5 |
| 20260504004717 | 27 | 225 | 6.0 | 8.0 | 0.00 | 0.00 | 0.00 | 75 | 1003.6 |
| 20260504002718 | 28 | 218 | 8.0 | 9.0 | 0.00 | 0.00 | 0.00 | 73 | 1003.6 |